Location: Maiden
(35.5760°N, 81.2120°W)
Time: 14:04:11
(UTC-04:00)

ISS - Visible Passes

Search period start: 05 May 2016 00:00
Search period end: 15 May 2016 00:00
Orbit: 402 x 405 km, 51.6° (Epoch: 05 May)

Date Brightness Start Highest point End Pass type
(mag) Time Alt. Az. Time Alt. Az. Time Alt. Az.
05 May -0.5 05:34:01 10° SSE 05:35:11 12° SE 05:36:22 10° ESE visible
07 May -1.8 05:23:46 12° SSW 05:26:19 30° SE 05:29:14 10° ENE visible
08 May -0.9 04:33:30 14° SE 04:33:57 15° SE 04:35:51 10° E visible
09 May -3.4 05:15:48 25° SW 05:17:33 89° E 05:20:50 10° NE visible
10 May -2.3 04:25:22 38° ESE 04:25:22 38° ESE 04:28:08 10° ENE visible
11 May -0.1 03:34:51 11° E 03:34:51 11° E 03:34:59 10° E visible
11 May -2.2 05:07:28 23° W 05:08:54 34° NW 05:11:56 10° NNE visible
12 May -2.6 04:16:53 53° NNE 04:16:53 53° NNE 04:19:32 10° NE visible
12 May -0.7 05:52:08 10° NW 05:53:14 11° NNW 05:54:20 10° N visible
13 May -0.3 03:26:13 15° ENE 03:26:13 15° ENE 03:26:54 10° ENE visible
13 May -1.1 04:58:51 13° WNW 05:00:23 17° NNW 05:02:39 10° NNE visible
14 May -1.6 04:08:07 27° NNW 04:08:07 27° NNW 04:10:30 10° NNE visible
